Weather in Kollontay

Russia / Kaluga Oblast     55°01′54″N   36°31′52″E
temp.,
°C
wind,
m/s
gust,
m/s
humid.,
%
clouds,
%
prec.,
mm/h
press.,
hPa
HPBL,
m
15 may, sat
sat1500:00+12e2698100 1.3 1009119
03:00+12se269713 1.3 1008103
06:00+14s249624 0.0 1007114
09:00+18sw468364 0.3 1008470
12:00+21ssw466015 0.4 10081528
15:00+21ssw485327 1.1 10081952
18:00+18ssw597571 0.8 1008911
21:00+14s4129273 1.2 1009403
16 may, sun
sun1600:00+13ssw4129444 0.1 1009419
03:00+12ssw3109810 0.1 1011292
06:00+12ssw39965 0.0 1011318
09:00+16ssw58799 0.0 1012682
12:00+19ssw576520 0.7 10131408
15:00+21sw575838 1.4 10131683
18:00+19sw36691 0.6 1013804
21:00+14s11885 0.6 101411
17 may, mon
mon1700:00+13se1191100 0.0 101411
03:00+12ese2294100 0.0 101414
06:00+13ese269037 0.0 1015142
09:00+19ese476772 0.0 1014526
12:00+23ese575884 0.0 10121026
15:00+25ese69557 0.0 10101310
18:00+24ese5116562 0.0 1009852
21:00+20se5157974 0.0 1009685
18 may, tue
tue1800:00+18se4158492 0.0 1008476
03:00+15ese41287100 0.0 1007323
06:00+15se41282100 0.0 1006370
09:00+20se51068100 0.0 1005547
12:00+24se61255100 0.0 10051264
15:00+22se6137779 1.1 10041373
18:00+20sse61478100 0.9 10041356
21:00+16sse4128675 1.1 1005708
19 may, wed
wed1900:00+14sse39975 0.0 1005281
03:00+13se3998100 0.0 1004242
06:00+15se41291100 0.0 1003410
09:00+19sse5117974 0.8 10021199
12:00+19sse61076100 1.1 10001447
15:00+13sse4109479 4.3 1000653
18:00+13sw61392100 1.3 1000726
21:00+11wsw51096100 1.5 1002671